Regional Weather Roundup
Issued by NWS

Home | Current Version | Previous Version | Graphics & Text | Print | Product List | Glossary On
Versions: 1 2 3 4 5 6 7 8 9 10 11 12 13 14 15 16 17 18 19 20 21 22 23 24 25 26 27 28 29 30 31 32 33 34 35 36 37 38 39 40 41 42 43 44 45 46 47 48 49 50
351
ASUS43 KLMK 230910
RWRKY
KENTUCKY REGIONAL WEATHER ROUNDUP
NATIONAL WEATHER SERVICE LOUISVILLE KY
500 AM EDT SAT JUL 23 2016

NOTE "FAIR" INDICATES FEW OR NO CLOUDS BELOW 12,000 FEET
WITH NO SIGNIFICANT WEATHER AND/OR OBSTRUCTIONS TO VISIBILITY.

KYZ001>023-026-027-061>063-070>075-231000-
WESTERN AND SOUTH CENTRAL KENTUCKY

CITY           SKY/WX    TMP DP  RH WIND       PRES   REMARKS
PADUCAH        CLOUDY    75  73  93 CALM      29.97F
HENDERSON      PTCLDY    73  72  94 CALM      29.98F
OWENSBORO      CLOUDY    74  73  96 CALM      30.00F
HOPKINSVILLE   CLOUDY    75  73  93 SW3       29.99F
BOWLING GREEN  FOG       74  73  97 CALM      30.01S VSB 1/2
GLASGOW        CLEAR     72  72 100 CALM      30.01S
$$

KYZ024-025-028>034-038-045-046-053-231000-
NORTH CENTRAL KENTUCKY

CITY           SKY/WX    TMP DP  RH WIND       PRES   REMARKS
LOUISVILLE/SDF PTCLDY    75  71  87 CALM      30.00F
LOUISVILLE/LOU CLEAR     75  70  84 CALM      30.01F
FORT KNOX      CLEAR     70  70 100 NE1       30.00S FOG
$$

KYZ035>037-039>044-047>052-055>060-089>105-231000-
NORTHEAST KENTUCKY

CITY           SKY/WX    TMP DP  RH WIND       PRES   REMARKS
LEXINGTON      CLEAR     70  68  93 CALM      30.03F
COVINGTON      PTCLDY    73  71  93 CALM      30.01F
FRANKFORT      CLEAR     71  68  90 CALM      30.01F
$$

KYZ054-064>069-076>088-106>120-231000-
SOUTHEAST KENTUCKY

CITY           SKY/WX    TMP DP  RH WIND       PRES   REMARKS
JACKSON        CLOUDY    71  68  90 CALM      30.06F
LONDON         CLOUDY    73  69  87 CALM      30.05S
SOMERSET       CLEAR     70  70 100 CALM      30.05S FOG
MIDDLESBORO    CLOUDY    74  72  93 CALM      30.06R
MONTICELLO     CLOUDY   N/A N/A N/A N10       30.05S HAZE
$$





USA.gov is the U.S. government's official web portal to all federal, state and local government web resources and services.